TimeMDT,TemperatureF,Dew PointF,Humidity,Sea Level PressureIn,VisibilityMPH,Wind Direction,Wind SpeedMPH,Gust SpeedMPH,PrecipitationIn,Events,Conditions,WindDirDegrees,DateUTC
12:00 AM,24.8,-9999,N/A,30.29,10.0,NNE,8.1,-,N/A,,Scattered Clouds,20,2012-10-06 06:00:00
12:20 AM,24.8,-9999,N/A,30.29,10.0,NNE,5.8,-,N/A,,Mostly Cloudy,30,2012-10-06 06:20:00
12:40 AM,23.0,-9999,N/A,30.29,10.0,NE,6.9,-,N/A,,Mostly Cloudy,40,2012-10-06 06:40:00
1:00 AM,23.0,-9999,N/A,30.29,10.0,NE,8.1,-,N/A,,Scattered Clouds,50,2012-10-06 07:00:00
1:20 AM,23.0,-9999,N/A,30.30,10.0,ENE,5.8,-,N/A,,Clear,60,2012-10-06 07:20:00
1:40 AM,23.0,-9999,N/A,30.29,10.0,NE,9.2,-,N/A,,Clear,50,2012-10-06 07:40:00
2:00 AM,23.0,-9999,N/A,30.30,10.0,NNE,5.8,-,N/A,,Clear,30,2012-10-06 08:00:00
2:20 AM,19.4,-9999,N/A,30.31,10.0,SSW,4.6,-,N/A,,Clear,200,2012-10-06 08:20:00
2:40 AM,17.6,-9999,N/A,30.31,10.0,SE,3.5,-,N/A,,Clear,140,2012-10-06 08:40:00
3:00 AM,15.8,-9999,N/A,30.31,10.0,Calm,Calm,-,N/A,,Clear,0,2012-10-06 09:00:00
3:20 AM,15.8,-9999,N/A,30.31,10.0,Calm,Calm,-,N/A,,Clear,0,2012-10-06 09:20:00
3:40 AM,14.0,-9999,N/A,30.31,10.0,ENE,3.5,-,N/A,,Clear,60,2012-10-06 09:40:00
4:00 AM,14.0,-9999,N/A,30.30,10.0,SSW,4.6,-,N/A,,Clear,200,2012-10-06 10:00:00
4:20 AM,14.0,-9999,N/A,30.30,10.0,SSW,3.5,-,N/A,,Clear,200,2012-10-06 10:20:00
4:40 AM,12.2,-9999,N/A,30.31,10.0,Calm,Calm,-,N/A,,Clear,0,2012-10-06 10:40:00
5:00 AM,10.4,-9999,N/A,30.31,10.0,Calm,Calm,-,N/A,,Clear,0,2012-10-06 11:00:00
5:25 AM,8.6,-9999,N/A,30.31,10.0,Calm,Calm,-,N/A,,Clear,0,2012-10-06 11:25:00
5:40 AM,8.6,-9999,N/A,30.31,10.0,Calm,Calm,-,N/A,,Clear,0,2012-10-06 11:40:00
6:00 AM,8.6,-9999,N/A,30.31,10.0,Calm,Calm,-,N/A,,Clear,0,2012-10-06 12:00:00
6:20 AM,6.8,-9999,N/A,30.31,10.0,SW,3.5,-,N/A,,Clear,220,2012-10-06 12:20:00
6:40 AM,6.8,-9999,N/A,30.31,10.0,Calm,Calm,-,N/A,,Clear,0,2012-10-06 12:40:00
7:00 AM,6.8,-9999,N/A,30.31,10.0,South,3.5,-,N/A,,Clear,180,2012-10-06 13:00:00
7:20 AM,6.8,-9999,N/A,30.31,10.0,SW,4.6,-,N/A,,Clear,220,2012-10-06 13:20:00
7:40 AM,6.8,-9999,N/A,30.32,10.0,Calm,Calm,-,N/A,,Clear,0,2012-10-06 13:40:00
8:00 AM,8.6,-9999,N/A,30.32,10.0,Calm,Calm,-,N/A,,Clear,0,2012-10-06 14:00:00
8:20 AM,10.4,-9999,N/A,30.32,10.0,Calm,Calm,-,N/A,,Clear,0,2012-10-06 14:20:00
8:40 AM,15.8,-9999,N/A,30.32,10.0,Calm,Calm,-,N/A,,Clear,0,2012-10-06 14:40:00
9:00 AM,17.6,-9999,N/A,30.32,10.0,Calm,Calm,-,N/A,,Clear,0,2012-10-06 15:00:00
9:20 AM,19.4,-9999,N/A,30.32,10.0,NE,3.5,-,N/A,,Clear,50,2012-10-06 15:20:00
9:40 AM,23.0,-9999,N/A,30.32,10.0,NE,4.6,-,N/A,,Clear,50,2012-10-06 15:40:00
10:00 AM,23.0,-9999,N/A,30.32,10.0,Calm,Calm,-,N/A,,Clear,0,2012-10-06 16:00:00
10:20 AM,24.8,-9999,N/A,30.32,10.0,North,4.6,-,N/A,,Clear,10,2012-10-06 16:20:00
10:40 AM,26.6,-9999,N/A,30.31,10.0,Calm,Calm,-,N/A,,Clear,0,2012-10-06 16:40:00
11:00 AM,28.4,-9999,N/A,30.31,10.0,NNE,4.6,-,N/A,,Clear,30,2012-10-06 17:00:00
11:20 AM,30.2,-9999,N/A,30.30,10.0,NE,5.8,-,N/A,,Clear,40,2012-10-06 17:20:00
11:40 AM,32.0,-9999,N/A,30.29,10.0,Calm,Calm,-,N/A,,Clear,0,2012-10-06 17:40:00
12:00 PM,32.0,-9999,N/A,30.28,10.0,Calm,Calm,-,N/A,,Clear,0,2012-10-06 18:00:00
12:20 PM,33.8,-9999,N/A,30.27,10.0,SW,3.5,-,N/A,,Clear,220,2012-10-06 18:20:00
12:40 PM,35.6,-9999,N/A,30.26,10.0,NNE,3.5,-,N/A,,Clear,20,2012-10-06 18:40:00
1:00 PM,35.6,-9999,N/A,30.25,10.0,East,3.5,-,N/A,,Clear,100,2012-10-06 19:00:00
1:20 PM,37.4,-9999,N/A,30.25,10.0,East,4.6,-,N/A,,Clear,90,2012-10-06 19:20:00
1:40 PM,39.2,-9999,N/A,30.24,10.0,East,4.6,-,N/A,,Clear,80,2012-10-06 19:40:00
2:00 PM,39.2,-9999,N/A,30.23,10.0,NW,5.8,-,N/A,,Clear,310,2012-10-06 20:00:00
2:20 PM,41.0,-9999,N/A,30.22,10.0,Calm,Calm,-,N/A,,Clear,0,2012-10-06 20:20:00
2:40 PM,42.8,-9999,N/A,30.21,10.0,West,3.5,-,N/A,,Clear,260,2012-10-06 20:40:00
3:00 PM,42.8,-9999,N/A,30.20,10.0,South,4.6,-,N/A,,Partly Cloudy,170,2012-10-06 21:00:00
3:20 PM,44.6,-9999,N/A,30.20,10.0,NNE,4.6,-,N/A,,Partly Cloudy,20,2012-10-06 21:20:00
4:00 PM,44.6,-9999,N/A,30.19,10.0,NNE,4.6,-,N/A,,Clear,20,2012-10-06 22:00:00
4:20 PM,44.6,-9999,N/A,30.19,10.0,NW,4.6,-,N/A,,Clear,320,2012-10-06 22:20:00
4:40 PM,44.6,-9999,N/A,30.18,10.0,NE,8.1,-,N/A,,Clear,40,2012-10-06 22:40:00
5:00 PM,44.6,-9999,N/A,30.18,10.0,Calm,Calm,-,N/A,,Clear,0,2012-10-06 23:00:00
5:20 PM,44.6,-9999,N/A,30.18,10.0,NNW,5.8,-,N/A,,Clear,330,2012-10-06 23:20:00
5:40 PM,44.6,-9999,N/A,30.18,10.0,WNW,5.8,-,N/A,,Clear,290,2012-10-06 23:40:00
6:00 PM,44.6,-9999,N/A,30.18,10.0,WNW,5.8,-,N/A,,Clear,300,2012-10-07 00:00:00
6:20 PM,42.8,-9999,N/A,30.19,10.0,Calm,Calm,-,N/A,,Clear,0,2012-10-07 00:20:00
6:40 PM,41.0,-9999,N/A,30.19,10.0,NNE,10.4,-,N/A,,Clear,20,2012-10-07 00:40:00
7:00 PM,37.4,-9999,N/A,30.20,10.0,NNE,5.8,-,N/A,,Clear,20,2012-10-07 01:00:00
7:20 PM,35.6,-9999,N/A,30.21,10.0,North,4.6,-,N/A,,Clear,360,2012-10-07 01:20:00
7:40 PM,32.0,-9999,N/A,30.22,10.0,NNW,4.6,-,N/A,,Clear,340,2012-10-07 01:40:00
8:00 PM,32.0,-9999,N/A,30.22,10.0,North,5.8,-,N/A,,Clear,10,2012-10-07 02:00:00
8:20 PM,32.0,-9999,N/A,30.23,10.0,North,6.9,-,N/A,,Clear,10,2012-10-07 02:20:00
8:40 PM,32.0,-9999,N/A,30.24,10.0,North,4.6,-,N/A,,Scattered Clouds,10,2012-10-07 02:40:00
9:00 PM,32.0,-9999,N/A,30.23,10.0,ENE,4.6,-,N/A,,Overcast,60,2012-10-07 03:00:00
9:20 PM,32.0,-9999,N/A,30.23,10.0,ENE,5.8,-,N/A,,Overcast,60,2012-10-07 03:20:00
9:40 PM,30.2,-9999,N/A,30.23,10.0,ENE,5.8,-,N/A,,Mostly Cloudy,60,2012-10-07 03:40:00
10:00 PM,32.0,-9999,N/A,30.23,10.0,NE,4.6,-,N/A,,Clear,50,2012-10-07 04:00:00
10:20 PM,30.2,-9999,N/A,30.23,10.0,Calm,Calm,-,N/A,,Clear,0,2012-10-07 04:20:00
10:40 PM,26.6,-9999,N/A,30.23,10.0,Calm,Calm,-,N/A,,Clear,0,2012-10-07 04:40:00
11:00 PM,26.6,-9999,N/A,30.23,10.0,Calm,Calm,-,N/A,,Clear,0,2012-10-07 05:00:00
11:20 PM,24.8,-9999,N/A,30.23,10.0,South,3.5,-,N/A,,Clear,180,2012-10-07 05:20:00
11:40 PM,24.8,-9999,N/A,30.23,10.0,Calm,Calm,-,N/A,,Clear,0,2012-10-07 05:40:00